Estación de Nogales
Ultimos registro cada 15 minutos 26
| N° | Estación | Fecha / Hora | Temperatura | Humedad | Lluvia | Velocidad | Dirección | Radiación | Presion |
| 26 | Nogales | 08-05-2026 06:15 | 2,9 | 96,5 | 0 | 0 | 300 | 0,6 | 988,7 |
| 25 | Nogales | 08-05-2026 06:00 | 3,8 | 96,9 | 0 | 0 | 300 | 0,6 | 988,7 |
| 24 | Nogales | 08-05-2026 05:45 | 3,6 | 96,9 | 0 | 0 | 300 | 0,6 | 988,7 |
| 23 | Nogales | 08-05-2026 05:30 | 2,9 | 96,6 | 0 | 0 | 300 | 0,6 | 988,5 |
| 22 | Nogales | 08-05-2026 05:15 | 3,2 | 96,7 | 0 | 0 | 300 | 0,6 | 988,3 |
| 21 | Nogales | 08-05-2026 05:00 | 3,1 | 96,2 | 0 | 0 | 300 | 0,6 | 988,1 |
| 20 | Nogales | 08-05-2026 04:45 | 3 | 96,2 | 0 | 0 | 300 | 0,6 | 988,2 |
| 19 | Nogales | 08-05-2026 04:30 | 3,1 | 96 | 0 | 0 | 300 | 0,6 | 988,3 |
| 18 | Nogales | 08-05-2026 04:15 | 3,9 | 96,1 | 0 | 0 | 300 | 0,6 | 988,5 |
| 17 | Nogales | 08-05-2026 04:00 | 4 | 96,1 | 0 | 0 | 300 | 0,6 | 988,8 |
| 16 | Nogales | 08-05-2026 03:45 | 4,3 | 95,9 | 0 | 0 | 300 | 0,6 | 988,8 |
| 15 | Nogales | 08-05-2026 03:30 | 4,2 | 95,6 | 0 | 0 | 300 | 0,6 | 988,9 |
| 14 | Nogales | 08-05-2026 03:15 | 4,1 | 95,5 | 0 | 0 | 300 | 0,6 | 989,1 |
| 13 | Nogales | 08-05-2026 03:00 | 4,9 | 95,7 | 0 | 0 | 300 | 0,6 | 989,1 |
| 12 | Nogales | 08-05-2026 02:45 | 4,8 | 95,6 | 0 | 0 | 300 | 0,6 | 989,3 |
| 11 | Nogales | 08-05-2026 02:30 | 4,5 | 95 | 0 | 0 | 300 | 0,6 | 989,7 |
| 10 | Nogales | 08-05-2026 02:15 | 4,9 | 95,2 | 0 | 0 | 300 | 0,6 | 989,7 |
| 9 | Nogales | 08-05-2026 02:00 | 5,5 | 95,1 | 0 | 0 | 300 | 0,6 | 989,8 |
| 8 | Nogales | 08-05-2026 01:45 | 5,7 | 95,1 | 0 | 0 | 300 | 0,6 | 989,6 |
| 7 | Nogales | 08-05-2026 01:30 | 5,5 | 94,5 | 0 | 0 | 300 | 0,6 | 989,9 |
| 6 | Nogales | 08-05-2026 01:15 | 5,9 | 94,5 | 0 | 0 | 300 | 0,6 | 990,2 |
| 5 | Nogales | 08-05-2026 01:00 | 5,9 | 94,4 | 0 | 0 | 300 | 0,6 | 990,3 |
| 4 | Nogales | 08-05-2026 00:45 | 6,2 | 93,9 | 0 | 0 | 300 | 0,6 | 990,3 |
| 3 | Nogales | 08-05-2026 00:30 | 6 | 93,4 | 0 | 0 | 300 | 0,6 | 990,4 |
| 2 | Nogales | 08-05-2026 00:15 | 6,6 | 93,3 | 0 | 0 | 300 | 0,6 | 990,5 |
| 1 | Nogales | 08-05-2026 00:00 | 6,7 | 93,5 | 0 | 0 | 300 | 0,6 | 990,6 |